Showing default

DRISHTI, 69010

AKA "DRISHTI" on Space-Track | Orbit data source: Space-Track

DRISHTI, 69010 is an Indian payload satellite in SSO that was launched on Sun, 03 May 2026 UTC via an FALCON 9 launch vehicle from the Air Force Western Test Range (AFWTR). Payload-class satellites include a variety of spacecraft equipped with specific instruments for various scientific and technological missions. These include communications satellites like Starlink; space stations such as the ISS; scientific satellites like the Hubble; Earth observation satellites from companies like Planet Labs, Umbra, and HawkEye 360; GPS; miniature CubeSats for education and research; and military/defense satellites.

Loading next visibility...
Identifier
69010, 2026-100AG
Orbit
SSO
Country
Flag of ININ / IND
Related business
Manufacturer
GALEYE
Mission
Operational Commercial Imaging
Bus & Motor
DRISHTI, Unknown motor
Mass
190 kg wet, 190 kg dry
Launch date (UTC)
2026-05-03 (3 months ago)
Launch vehicle
FALCON 9
Launch site
Air Force Western Test Range (AFWTR)
Object type
Payload
Rocket body
Debris
Shape & HBR
Box + 2 Pan, 14.5 m
Radar Cross Section
2.180 m², Medium (>0.1 m² and < 1m²)

Expand to show TLE details & history
Last TLE update: 9 hours ago

TLE from 9 hours ago
0 DRISHTI
1 69010U 26100AG  26221.72139447  .00001302  00000-0  62352-4 0  9993
2 69010  97.3968 118.5736 0004870 181.7517 178.3702 15.20683518 14945
Epoch: 2026-08-09T17:18Z
TLE epoch observation values (Epoch: 2026-08-09T17:18:48.482Z)
Latitude
-0.00004°
Longitude
-99.34272°
Altitude
510.22 km
Speed
7.607 km/s
True Right ascension
07h 54m 17s
True Declination
0° 00' 00"
Sunlit
Object was in daylight at epoch
Visualization orbit readout
Latitude
Unknown
Longitude
Unknown
Altitude
Unknown
Speed
Unknown
Apparent Right ascension
Unknown
Apparent Declination
Unknown
Sunlit
N/A
Visualization observer readout
Local Sidereal Time
16:29:28
Azimuth
Unknown
Elevation
Unknown
Doppler factor
Unknown
Orbital elements
Apogee altitude
504.092 km
Perigee altitude
497.392 km
Semi-major axis
6,878.879 km
Eccentricity
0.00049
Inclination
97.3968°
RAAN
118.5736°
Arg. of periapsis
181.7517°
True anomaly
178.37179°
Mean anomaly
178.3702°
Eccentric anomaly
178.37099°
Mean motion
3.80423 °/min
Orbital period
94.63 mins
BSTAR
0.000062352
Loading maneuver chart data...
Computing Atmospheric mass density...
Loading historical data...
Loading historical data...
Loading historical data...
Loading historical data...
Loading historical data...
Loading historical data...
Loading historical data...

Documentation

Showing up to 5 results
|